Andrews, TX

11:08 AM CDT on July 23, 2017 (GMT -0500)
Andrews

Weather History for KE11 - April, 2013

Change the Weather History Date:

Tuesday, April 23, 2013

  Actual Average (KMAF) Record (KMAF)
Temperature  
Mean Temperature 53 °F -  
Max Temperature 71 °F 78 °F 98 °F (1989)
Min Temperature 35 °F 49 °F 33 °F (1995)
Degree Days  
Heating Degree Days 12    
Growing Degree Days 3 (Base 50)    
Moisture  
Dew Point 31 °F    
Average Humidity 52    
Maximum Humidity 76    
Minimum Humidity 33    
Precipitation  
Precipitation 0.00 in - - ()
Sea Level Pressure  
Sea Level Pressure 30.04 in    
Wind  
Wind Speed 16 mph (NE)    
Max Wind Speed 26 mph    
Max Gust Speed 38 mph    
Visibility 10 miles    
Events      
Averages and records for this station are not official NWS values.
T = Trace of Precipitation, MM = Missing Value Source: NWS Daily Summary

Daily Weather History Graph

Daily Weather History Graph

Search for Another Location

Airport or City:

Trip Planner

Search our weather history database for the weather conditions in past years. The results will help you decide how hot, cold, wet, or windy it might be!

Date:

Astronomy

Apr. 23, 2013 Rise Set
Actual Time 7:11 AM CDT 8:25 PM CDT
Civil Twilight 6:45 AM CDT 8:51 PM CDT
Nautical Twilight 6:15 AM CDT 9:21 PM CDT
Astronomical Twilight 5:43 AM CDT 9:53 PM CDT
Moon 6:28 PM CDT 5:33 AM CDT
Length of Visible Light 14h 05m
Length of Day
13h 14m
Waxing Gibbous, 94% of the Moon is Illuminated
Apr 23
Waxing Gibbous
Apr 25
Full
May 2
Last Quarter
May 9
New
May 17
First Quarter

Hourly Weather History & Observations

Time (CDT) Temp. Windchill Dew Point Humidity Pressure Visibility Wind Dir Wind Speed Gust Speed Precip Events Conditions
12:15 AM 71.4 °F - 44.2 °F 38% 29.83 in 10.0 mi South 11.5 mph - N/A   Clear
12:35 AM 70.9 °F - 45.0 °F 39% 29.83 in 10.0 mi South 11.5 mph 17.3 mph N/A   Clear
12:55 AM 70.7 °F - 46.0 °F 41% 29.83 in 10.0 mi South 13.8 mph 20.7 mph N/A   Clear
1:15 AM 70.3 °F - 46.9 °F 43% 29.82 in 10.0 mi South 16.1 mph 24.2 mph N/A   Clear
1:35 AM 70.0 °F - 48.2 °F 46% 29.82 in 10.0 mi SSW 16.1 mph 24.2 mph N/A   Clear
2:15 AM 69.1 °F - 48.7 °F 48% 29.82 in 10.0 mi South 13.8 mph 21.9 mph N/A   Clear
2:55 AM 67.6 °F - 49.1 °F 51% 29.80 in 10.0 mi SSW 13.8 mph 21.9 mph N/A   Clear
3:15 AM 68.4 °F - 48.6 °F 49% 29.87 in 10.0 mi WNW 17.3 mph 29.9 mph N/A   Clear
3:35 AM 48.7 °F - 35.8 °F 61% 29.89 in 5.0 mi North 23.0 mph 34.5 mph N/A   Haze
3:55 AM 45.9 °F 37.8 °F 34.5 °F 65% 29.91 in 7.0 mi North 21.9 mph 28.8 mph N/A   Overcast
4:15 AM 43.7 °F 34.7 °F 33.6 °F 68% 29.93 in 7.0 mi North 23.0 mph 31.1 mph N/A   Overcast
4:35 AM 41.9 °F 31.7 °F 32.5 °F 69% 29.94 in 7.0 mi North 26.5 mph 38.0 mph N/A   Overcast
5:15 AM 39.9 °F 30.2 °F 32.0 °F 73% 29.96 in 7.0 mi NNE 20.7 mph 34.5 mph N/A   Scattered Clouds
5:35 AM 39.2 °F 29.3 °F 32.0 °F 75% 29.97 in 7.0 mi NNE 20.7 mph 32.2 mph N/A   Mostly Cloudy
5:55 AM 38.5 °F 27.1 °F 31.5 °F 76% 29.98 in 10.0 mi North 26.5 mph 36.8 mph N/A   Mostly Cloudy
6:15 AM 37.9 °F 27.3 °F 30.9 °F 76% 29.99 in 10.0 mi NNE 21.9 mph 29.9 mph N/A   Mostly Cloudy
6:35 AM 36.9 °F 24.9 °F 30.0 °F 76% 30.00 in 7.0 mi NNE 26.5 mph 35.7 mph N/A   Mostly Cloudy
6:55 AM 37.4 °F 26.1 °F 29.5 °F 73% 30.02 in 10.0 mi NNE 24.2 mph 32.2 mph N/A   Overcast
7:15 AM 36.7 °F 25.1 °F 29.3 °F 75% 30.03 in 10.0 mi North 24.2 mph 33.4 mph N/A   Overcast
7:35 AM 35.8 °F 23.9 °F 28.4 °F 75% 30.05 in 7.0 mi NNE 24.2 mph 32.2 mph N/A   Overcast
7:55 AM 36.0 °F 23.9 °F 28.2 °F 73% 30.06 in 10.0 mi NNE 25.3 mph 32.2 mph N/A   Overcast
8:15 AM 36.0 °F 24.4 °F 28.4 °F 74% 30.08 in 10.0 mi North 23.0 mph 29.9 mph N/A   Overcast
8:35 AM 36.3 °F 24.9 °F 28.6 °F 74% 30.09 in 10.0 mi NNE 23.0 mph 29.9 mph N/A   Overcast
8:55 AM 36.7 °F 24.9 °F 27.9 °F 70% 30.10 in 10.0 mi NNE 25.3 mph - N/A   Overcast
9:15 AM 37.8 °F 27.7 °F 28.0 °F 68% 30.11 in 10.0 mi NNE 19.6 mph 27.6 mph N/A   Overcast
9:35 AM 38.7 °F 28.8 °F 28.2 °F 66% 30.12 in 10.0 mi NNE 19.6 mph 25.3 mph N/A   Overcast
9:55 AM 40.3 °F 31.6 °F 28.8 °F 63% 30.12 in 10.0 mi NNE 17.3 mph 24.2 mph N/A   Overcast
10:15 AM 41.0 °F 32.2 °F 28.2 °F 60% 30.12 in 10.0 mi NNE 18.4 mph 26.5 mph N/A   Overcast
10:35 AM 42.1 °F 33.1 °F 28.6 °F 59% 30.12 in 10.0 mi NNE 20.7 mph 25.3 mph N/A   Mostly Cloudy
10:55 AM 43.9 °F 35.7 °F 28.6 °F 55% 30.12 in 10.0 mi NNE 19.6 mph 26.5 mph N/A   Mostly Cloudy
11:35 AM 45.7 °F 39.5 °F 28.9 °F 52% 30.12 in 10.0 mi NNE 13.8 mph 23.0 mph N/A   Mostly Cloudy
11:55 AM 46.9 °F - 29.5 °F 51% 30.12 in 10.0 mi North 16.1 mph 25.3 mph N/A   Scattered Clouds
12:15 PM 48.4 °F - 29.1 °F 47% 30.12 in 10.0 mi NE 12.7 mph 23.0 mph N/A   Clear
12:35 PM 48.9 °F - 29.5 °F 47% 30.12 in 10.0 mi NE 16.1 mph 20.7 mph N/A   Clear
12:55 PM 50.0 °F - 29.3 °F 45% 30.11 in 10.0 mi NE 13.8 mph 18.4 mph N/A   Clear
1:15 PM 50.0 °F - 29.5 °F 45% 30.10 in 10.0 mi North 9.2 mph 18.4 mph N/A   Clear
1:35 PM 51.8 °F - 29.5 °F 42% 30.09 in 10.0 mi NNE 13.8 mph 21.9 mph N/A   Clear
1:55 PM 52.7 °F - 29.7 °F 41% 30.08 in 10.0 mi ENE 11.5 mph 19.6 mph N/A   Clear
2:15 PM 53.4 °F - 29.7 °F 40% 30.07 in 10.0 mi NE 8.1 mph 17.3 mph N/A   Clear
2:35 PM 54.1 °F - 30.0 °F 40% 30.07 in 10.0 mi NNE 8.1 mph - N/A   Clear
2:55 PM 54.9 °F - 30.0 °F 39% 30.07 in 10.0 mi North 11.5 mph - N/A   Clear
3:15 PM 55.2 °F - 30.0 °F 38% 30.06 in 10.0 mi NE 10.4 mph 16.1 mph N/A   Clear
3:35 PM 56.5 °F - 30.2 °F 37% 30.05 in 10.0 mi NNE 10.4 mph 16.1 mph N/A   Clear
3:55 PM 56.5 °F - 29.8 °F 36% 30.04 in 10.0 mi NE 5.8 mph - N/A   Clear
4:15 PM 57.6 °F - 29.8 °F 35% 30.03 in 10.0 mi NNE 11.5 mph 16.1 mph N/A   Clear
4:35 PM 57.2 °F - 29.7 °F 35% 30.03 in 10.0 mi NNE 11.5 mph 17.3 mph N/A   Clear
4:55 PM 57.9 °F - 29.7 °F 34% 30.02 in 10.0 mi North 10.4 mph 17.3 mph N/A   Clear
5:15 PM 58.5 °F - 29.5 °F 33% 30.01 in 10.0 mi East 5.8 mph 18.4 mph N/A   Clear
5:35 PM 58.5 °F - 29.5 °F 33% 30.01 in 10.0 mi NE 11.5 mph 17.3 mph N/A   Clear
5:55 PM 58.5 °F - 29.8 °F 34% 30.01 in 10.0 mi NE 9.2 mph 16.1 mph N/A   Clear
6:15 PM 58.3 °F - 29.7 °F 34% 30.01 in 10.0 mi NE 8.1 mph 16.1 mph N/A   Clear
6:35 PM 57.9 °F - 29.8 °F 34% 30.01 in 10.0 mi ENE 12.7 mph 18.4 mph N/A   Clear
6:55 PM 57.6 °F - 29.5 °F 34% 30.02 in 10.0 mi East 15.0 mph 21.9 mph N/A   Clear
7:15 PM 56.5 °F - 29.3 °F 35% 30.03 in 10.0 mi ENE 17.3 mph - N/A   Clear
7:35 PM 55.2 °F - 28.9 °F 37% 30.03 in 10.0 mi ENE 12.7 mph 19.6 mph N/A   Clear
7:55 PM 54.1 °F - 28.9 °F 38% 30.04 in 10.0 mi NE 16.1 mph 19.6 mph N/A   Clear
8:15 PM 52.7 °F - 28.6 °F 40% 30.06 in 10.0 mi ENE 15.0 mph 20.7 mph N/A   Clear
8:35 PM 51.4 °F - 28.4 °F 41% 30.07 in 10.0 mi NE 17.3 mph 21.9 mph N/A   Clear
8:55 PM 49.8 °F - 28.2 °F 43% 30.10 in 10.0 mi NE 21.9 mph 26.5 mph N/A   Clear
9:15 PM 46.4 °F 38.3 °F 27.1 °F 47% 30.13 in 10.0 mi NE 23.0 mph 28.8 mph N/A   Clear
9:35 PM 43.7 °F 35.4 °F 26.6 °F 51% 30.17 in 10.0 mi NE 19.6 mph 32.2 mph N/A   Clear
9:55 PM 42.4 °F 32.8 °F 26.6 °F 54% 30.19 in 10.0 mi NNE 24.2 mph 31.1 mph N/A   Clear
10:15 PM 40.8 °F 31.4 °F 26.1 °F 56% 30.21 in 10.0 mi NNE 20.7 mph 27.6 mph N/A   Clear
10:35 PM 39.7 °F 30.9 °F 25.7 °F 57% 30.22 in 10.0 mi NE 17.3 mph 27.6 mph N/A   Scattered Clouds
10:55 PM 38.8 °F 29.1 °F 25.7 °F 59% 30.23 in 10.0 mi NE 19.6 mph 28.8 mph N/A   Clear
11:15 PM 38.3 °F 28.7 °F 25.7 °F 61% 30.24 in 10.0 mi NE 18.4 mph 25.3 mph N/A   Clear
11:35 PM 37.4 °F 28.5 °F 25.7 °F 63% 30.23 in 10.0 mi ENE 15.0 mph 20.7 mph N/A   Clear
11:55 PM 36.9 °F 29.1 °F 25.7 °F 64% 30.23 in 10.0 mi East 11.5 mph 18.4 mph N/A   Clear